TimeCDT,TemperatureF,Dew PointF,Humidity,Sea Level PressureIn,VisibilityMPH,Wind Direction,Wind SpeedMPH,Gust SpeedMPH,PrecipitationIn,Events,Conditions,WindDirDegrees,DateUTC
12:15 AM,73.9,73.4,98,30.02,10.0,SSE,4.6,-,N/A,,Clear,160,2013-07-22 05:15:00
12:35 AM,74.3,73.8,98,30.02,10.0,Calm,Calm,-,N/A,,Clear,0,2013-07-22 05:35:00
12:55 AM,74.8,74.3,98,30.02,10.0,South,4.6,-,N/A,,Clear,170,2013-07-22 05:55:00
1:15 AM,74.3,73.6,98,30.02,10.0,SSE,3.5,-,N/A,,Clear,160,2013-07-22 06:15:00
1:35 AM,74.3,73.9,99,30.01,10.0,SSE,3.5,-,N/A,,Clear,160,2013-07-22 06:35:00
1:55 AM,74.1,73.8,99,30.01,7.0,SSE,4.6,-,N/A,,Clear,160,2013-07-22 06:55:00
2:15 AM,74.3,73.8,98,30.00,7.0,SSE,3.5,-,N/A,,Clear,150,2013-07-22 07:15:00
2:35 AM,74.5,74.3,99,30.00,5.0,Calm,Calm,-,N/A,,Scattered Clouds,0,2013-07-22 07:35:00
2:55 AM,75.0,74.7,99,30.00,7.0,Calm,Calm,-,N/A,,Scattered Clouds,0,2013-07-22 07:55:00
3:15 AM,75.6,75.2,99,30.00,5.0,Calm,Calm,-,N/A,,Scattered Clouds,0,2013-07-22 08:15:00
3:35 AM,75.9,75.4,98,29.99,5.0,SE,3.5,-,N/A,,Scattered Clouds,140,2013-07-22 08:35:00
3:55 AM,75.6,75.4,99,29.99,3.0,Calm,Calm,-,N/A,,Scattered Clouds,0,2013-07-22 08:55:00
4:15 AM,75.7,75.6,99,30.00,3.0,Calm,Calm,-,N/A,,Clear,0,2013-07-22 09:15:00
4:35 AM,76.1,75.9,99,30.00,3.0,Calm,Calm,-,N/A,,Clear,0,2013-07-22 09:35:00
4:55 AM,75.4,75.4,100,29.99,2.5,SSE,3.5,-,N/A,,Mist,160,2013-07-22 09:55:00
5:15 AM,75.7,75.6,99,30.00,3.0,SE,3.5,-,N/A,,Clear,140,2013-07-22 10:15:00
5:35 AM,76.3,76.1,99,30.01,3.0,Calm,Calm,-,N/A,,Clear,0,2013-07-22 10:35:00
5:55 AM,76.5,76.3,99,30.01,3.0,Calm,Calm,-,N/A,,Clear,0,2013-07-22 10:55:00
6:00 AM,77.0,77.0,100,30.01,7.0,Calm,Calm,-,N/A,,Scattered Clouds,0,2013-07-22 11:00:00
6:15 AM,75.9,75.7,99,30.01,2.5,Calm,Calm,-,N/A,,Clear,0,2013-07-22 11:15:00
6:35 AM,76.1,76.1,100,30.02,1.5,Calm,Calm,-,N/A,,Mist,0,2013-07-22 11:35:00
6:45 AM,77.0,77.0,100,30.01,7.0,Calm,Calm,-,N/A,,Scattered Clouds,0,2013-07-22 11:45:00
6:55 AM,76.6,76.5,99,30.02,3.0,Calm,Calm,-,N/A,,Clear,0,2013-07-22 11:55:00
7:58 AM,80.6,80.6,100,30.04,10.0,Calm,Calm,-,N/A,,Mostly Cloudy,0,2013-07-22 12:58:00
8:57 AM,86.0,77.0,74,30.05,10.0,SSW,12.7,16.1,N/A,,Mostly Cloudy,210,2013-07-22 13:57:00
9:55 AM,87.8,75.2,66,30.04,10.0,SSW,13.8,18.4,N/A,,Mostly Cloudy,210,2013-07-22 14:55:00
10:50 AM,89.6,71.6,55,30.06,10.0,SW,15.0,19.6,N/A,,Mostly Cloudy,220,2013-07-22 15:50:00
11:50 AM,89.6,73.4,59,30.06,10.0,SW,13.8,-,N/A,,Mostly Cloudy,220,2013-07-22 16:50:00
12:55 PM,91.4,73.4,55,30.04,10.0,SSW,12.7,17.3,N/A,,Mostly Cloudy,200,2013-07-22 17:55:00
1:45 PM,91.4,73.4,55,30.02,10.0,SSW,15.0,20.7,N/A,,Mostly Cloudy,200,2013-07-22 18:45:00
2:50 PM,91.4,73.4,55,30.02,10.0,SSW,10.4,24.2,N/A,,Scattered Clouds,210,2013-07-22 19:50:00
3:50 PM,91.4,73.4,55,30.01,10.0,South,16.1,24.2,N/A,,Scattered Clouds,190,2013-07-22 20:50:00
4:50 PM,91.4,73.4,55,30.01,10.0,SW,18.4,-,N/A,,Scattered Clouds,220,2013-07-22 21:50:00
5:50 PM,89.6,73.4,59,29.99,10.0,South,15.0,19.6,N/A,,Scattered Clouds,190,2013-07-22 22:50:00
6:50 PM,87.8,73.4,62,30.00,10.0,SSW,12.7,-,N/A,,Scattered Clouds,200,2013-07-22 23:50:00
7:50 PM,84.2,75.2,74,30.00,10.0,South,10.4,-,N/A,,Partly Cloudy,190,2013-07-23 00:50:00
8:50 PM,82.4,75.2,79,30.00,10.0,SSW,8.1,-,N/A,,Scattered Clouds,200,2013-07-23 01:50:00
9:50 PM,82.4,75.2,79,30.01,10.0,SSW,4.6,-,N/A,,Clear,210,2013-07-23 02:50:00
11:15 PM,81.5,75.4,82,30.03,7.0,SSW,5.8,-,N/A,,Scattered Clouds,200,2013-07-23 04:15:00
11:35 PM,81.7,75.6,82,30.03,7.0,SSW,5.8,-,N/A,,Scattered Clouds,200,2013-07-23 04:35:00
11:55 PM,81.9,75.6,81,30.03,7.0,SSW,4.6,-,N/A,,Scattered Clouds,200,2013-07-23 04:55:00